• MPC Preparation (Info)

  • MPEC 2014-G10 : 2014 GF1

    The following Minor Planet Electronic Circular may be linked-to from your own Web pages, but must not otherwise be redistributed electronically.

    A form allowing access to any MPEC is at the bottom of this page.


    Read MPEC 2014-G09 Read MPEC 2014-G11


    M.P.E.C. 2014-G10                                Issued 2014 Apr. 3, 19:33 UT
    
         The Minor Planet Electronic Circulars contain information on unusual
             minor planets and routine data on comets.  They are published
       on behalf of Commission 20 of the International Astronomical Union by the
              Minor Planet Center, Smithsonian Astrophysical Observatory,
                              Cambridge, MA 02138, U.S.A.
    
                 Prepared using the Tamkin Foundation Computer Network
    
                                  MPC@CFA.HARVARD.EDU
                URL https://www.minorplanetcenter.net/    ISSN 1523-6714
    
                                       2014 GF1
    
    Observations:
         K14G01F* C2014 04 01.26904 12 23 24.52 -05 36 29.6          19.6 VqEG010G96
         K14G01F  C2014 04 01.27359 12 23 29.12 -05 36 07.5          19.6 VqEG010G96
         K14G01F  C2014 04 01.27816 12 23 33.84 -05 35 44.9          19.4 VqEG010G96
         K14G01F  C2014 04 01.28270 12 23 38.41 -05 35 22.7          20.1 VqEG010G96
         K14G01F  C2014 04 01.34693 12 24 44.02 -05 30 07.2          20.4 VqEG010G96
         K14G01F  C2014 04 01.35306 12 24 50.20 -05 29 37.8          19.7 VqEG010G96
         K14G01F  C2014 04 01.35917 12 24 56.45 -05 29 08.0          19.6 VqEG010G96
         K14G01F  C2014 04 01.36533 12 25 02.92 -05 28 37.4          20.4 VqEG010G96
         K14G01F  C2014 04 02.26499 12 41 19.15 -04 14 14.9          19.8 VqEG010G96
         K14G01F  C2014 04 02.26532 12 41 19.47 -04 14 13.2          20.0 VqEG010G96
         K14G01F  C2014 04 02.26564 12 41 19.82 -04 14 11.9          19.6 VqEG010G96
         K14G01F  C2014 04 02.26596 12 41 20.16 -04 14 11.5          19.2 VqEG010G96
         K14G01F  C2014 04 02.30044 12 41 55.29 -04 11 15.5          19.7 RoEG010926
         K14G01F  C2014 04 02.30244 12 41 57.34 -04 11 05.6          19.6 RoEG010926
         K14G01F  C2014 04 02.30443 12 41 59.38 -04 10 55.6          19.7 RoEG010926
         K14G01F |C2014 04 03.24495 12 58 43.72 -02 49 21.8          20.3 VuEG010807
         K14G01F |C2014 04 03.24990 12 58 48.68 -02 48 56.9          20.5 VuEG010807
         K14G01F |C2014 04 03.25484 12 58 53.66 -02 48 32.0          20.2 VuEG010807
    
    Observer details:
    807 Cerro Tololo.  Observers T. Linder, R. Holmes.  Measurers T. Linder,
        R. Holmes, K. Baker.  0.41-m f/11 Ritchey-Chretien + CCD.
    926 Tenagra II Observatory.  Observers M. Schwartz, P. R. Holvorcem.  0.81-m
        f/7 Ritchey-Chretien + CCD.
    G96 Mt. Lemmon Survey.  Observer A. D. Grauer.  Measurers E. J. Christensen,
        A. R. Gibbs, A. D. Grauer, R. E. Hill, J. A. Johnson, R. A. Kowalski,
        S. M. Larson, F. C. Shelly.  1.5-m reflector + CCD.
    
    Orbital elements:
    2014 GF1                                                 Earth MOID = 0.0536 AU
    Epoch 2014 May 23.0 TT = JDT 2456800.5                  MPC
    M  15.78881              (2000.0)            P               Q
    n   0.29408487     Peri.  356.76047     -0.98797765     +0.15194549
    a   2.2395165      Node   192.09203     -0.13860506     -0.95226670
    e   0.5301240      Incl.    7.82165     -0.06847482     -0.26476538
    P   3.35           H   25.9           G   0.15           U   7
    Residuals in seconds of arc
    140401 G96  0.1-  0.2-    140401 G96  0.6-  0.2-    140402 926  0.3-  0.1+
    140401 G96  0.7-  0.3-    140401 G96  1.8+  0.0     140402 926  0.1-  0.1-
    140401 G96  0.2+  0.1+    140402 G96  0.1+  0.2+    140402 926  0.1+  0.0
    140401 G96  0.7-  0.1+    140402 G96  0.2-  0.2+    140403 807  0.1+  0.2+
    140401 G96  0.7+  0.9+    140402 G96  0.2+  0.1-    140403 807  0.2-  0.1+
    140401 G96  0.6-  0.1+    140402 G96  0.4+  1.3-    140403 807  0.0   0.2+
    
    Ephemeris:
    2014 GF1                 a,e,i = 2.24, 0.53, 8                   q = 1.0523
    Date    TT    R. A. (2000) Decl.     Delta      r     Elong.  Phase     V
    2014 03 04    08 30 18.7 -16 20 03   0.1419  1.0994   136.9    38.0    23.4
    ...
    2014 03 19    09 29 44.0 -15 30 57   0.08291 1.0612   141.0    36.1    22.1
    ...
    2014 03 27    10 55 44.4 -11 32 42   0.05989 1.0530   156.7    22.0    21.0
    ...
    2014 04 02    12 36 30.2 -04 34 44   0.05333 1.0528   178.1     1.8    19.9
    2014 04 03    12 54 24.3 -03 11 11   0.05352 1.0532   177.4     2.4    19.9
    2014 04 04    13 12 00.1 -01 47 48   0.05410 1.0538   173.7     6.0    20.2
    ...
    2014 04 10    14 41 41.9 +05 12 47   0.06457 1.0603   154.4    24.1    21.2
    ...
    2014 04 18    15 51 16.6 +09 52 21   0.09028 1.0766   142.0    35.0    22.3
    ...
    2014 05 03    16 39 11.4 +11 41 26   0.1518  1.1281   139.8    35.3    23.5
    
    A. U. Tomatic                (C) Copyright 2014 MPC           M.P.E.C. 2014-G10
    

    Read MPEC 2014-G09 Read MPEC 2014-G11


    MPEC number:

    Enter an MPEC number in one of the following forms:

    • 1997-B01 (the full form)
    • J97B01 (the packed version of the full form)
    • B01 (the abbreviated form)